Year,Month,Day,Hour,Minute,Value (Times are PST for temperature in C)
2012,05,07,00,00,9.10
2012,05,07,00,01,9.10
2012,05,07,00,02,9.10
2012,05,07,00,03,9.00
2012,05,07,00,04,9.00
2012,05,07,00,05,8.90
2012,05,07,00,06,8.90
2012,05,07,00,07,8.90
2012,05,07,00,08,8.90
2012,05,07,00,09,8.90
2012,05,07,00,10,8.80
2012,05,07,00,11,8.80
2012,05,07,00,12,8.80
2012,05,07,00,13,8.80
2012,05,07,00,14,8.80
2012,05,07,00,15,8.80
2012,05,07,00,16,8.80
2012,05,07,00,17,8.80
2012,05,07,00,18,8.80
2012,05,07,00,19,8.80
2012,05,07,00,20,8.80
2012,05,07,00,21,8.80
2012,05,07,00,22,8.80
2012,05,07,00,23,8.80
2012,05,07,00,24,8.80
2012,05,07,00,25,8.80
2012,05,07,00,26,8.80
2012,05,07,00,27,8.80
2012,05,07,00,28,8.80
2012,05,07,00,29,8.80
2012,05,07,00,30,8.70
2012,05,07,00,31,8.70
2012,05,07,00,32,8.70
2012,05,07,00,33,8.70
2012,05,07,00,34,8.70
2012,05,07,00,35,8.70
2012,05,07,00,36,8.70
2012,05,07,00,37,8.70
2012,05,07,00,38,8.60
2012,05,07,00,39,8.60
2012,05,07,00,40,8.60
2012,05,07,00,41,8.60
2012,05,07,00,42,8.50
2012,05,07,00,43,8.50
2012,05,07,00,44,8.40
2012,05,07,00,45,8.40
2012,05,07,00,46,8.30
2012,05,07,00,47,8.30
2012,05,07,00,48,8.30
2012,05,07,00,49,8.30
2012,05,07,00,50,8.30
2012,05,07,00,51,8.20
2012,05,07,00,52,8.20
2012,05,07,00,53,8.20
2012,05,07,00,54,8.20
2012,05,07,00,55,8.20
2012,05,07,00,56,8.20
2012,05,07,00,57,8.20
2012,05,07,00,58,8.20
2012,05,07,00,59,8.10
2012,05,07,01,00,8.10
2012,05,07,01,01,8.10
2012,05,07,01,02,8.10
2012,05,07,01,03,8.10
2012,05,07,01,04,8.10
2012,05,07,01,05,8.10
2012,05,07,01,06,8.10
2012,05,07,01,07,8.00
2012,05,07,01,08,8.00
2012,05,07,01,09,8.00
2012,05,07,01,10,8.00
2012,05,07,01,11,8.00
2012,05,07,01,12,8.00
2012,05,07,01,13,8.00
2012,05,07,01,14,8.10
2012,05,07,01,15,8.10
2012,05,07,01,16,8.10
2012,05,07,01,17,8.10
2012,05,07,01,18,8.10
2012,05,07,01,19,8.10
2012,05,07,01,20,8.10
2012,05,07,01,21,8.20
2012,05,07,01,22,8.20
2012,05,07,01,23,8.20
2012,05,07,01,24,8.20
2012,05,07,01,25,8.20
2012,05,07,01,26,8.30
2012,05,07,01,27,8.30
2012,05,07,01,28,8.30
2012,05,07,01,29,8.30
2012,05,07,01,30,8.30
2012,05,07,01,31,8.30
2012,05,07,01,32,8.30
2012,05,07,01,33,8.30
2012,05,07,01,34,8.30
2012,05,07,01,35,8.30
2012,05,07,01,36,8.30
2012,05,07,01,37,8.30
2012,05,07,01,38,8.30
2012,05,07,01,39,8.30
2012,05,07,01,40,8.30
2012,05,07,01,41,8.30
2012,05,07,01,42,8.20
2012,05,07,01,43,8.20
2012,05,07,01,44,8.20
2012,05,07,01,45,8.20
2012,05,07,01,46,8.20
2012,05,07,01,47,8.10
2012,05,07,01,48,8.10
2012,05,07,01,49,8.10
2012,05,07,01,50,8.10
2012,05,07,01,51,8.00
2012,05,07,01,52,8.00
2012,05,07,01,53,8.00
2012,05,07,01,54,8.00
2012,05,07,01,55,7.90
2012,05,07,01,56,7.90
2012,05,07,01,57,7.90
2012,05,07,01,58,7.90
2012,05,07,01,59,7.80
2012,05,07,02,00,7.80
2012,05,07,02,01,7.80
2012,05,07,02,02,7.80
2012,05,07,02,03,7.70
2012,05,07,02,04,7.70
2012,05,07,02,05,7.60
2012,05,07,02,06,7.60
2012,05,07,02,07,7.60
2012,05,07,02,08,7.50
2012,05,07,02,09,7.50
2012,05,07,02,10,7.40
2012,05,07,02,11,7.40
2012,05,07,02,12,7.30
2012,05,07,02,13,7.30
2012,05,07,02,14,7.30
2012,05,07,02,15,7.30
2012,05,07,02,16,7.20
2012,05,07,02,17,7.20
2012,05,07,02,18,7.20
2012,05,07,02,19,7.20
2012,05,07,02,20,7.20
2012,05,07,02,21,7.20
2012,05,07,02,22,7.20
2012,05,07,02,23,7.10
2012,05,07,02,24,7.10
2012,05,07,02,25,7.10
2012,05,07,02,26,7.10
2012,05,07,02,27,7.10
2012,05,07,02,28,7.10
2012,05,07,02,29,7.10
2012,05,07,02,30,7.10
2012,05,07,02,31,7.10
2012,05,07,02,32,7.10
2012,05,07,02,33,7.10
2012,05,07,02,34,7.10
2012,05,07,02,35,7.10
2012,05,07,02,36,7.10
2012,05,07,02,37,7.10
2012,05,07,02,38,7.10
2012,05,07,02,39,7.10
2012,05,07,02,40,7.10
2012,05,07,02,41,7.10
2012,05,07,02,42,7.10
2012,05,07,02,43,7.10
2012,05,07,02,44,7.10
2012,05,07,02,45,7.10
2012,05,07,02,46,7.10
2012,05,07,02,47,7.10
2012,05,07,02,48,7.10
2012,05,07,02,49,7.10
2012,05,07,02,50,7.10
2012,05,07,02,51,7.10
2012,05,07,02,52,7.20
2012,05,07,02,53,7.20
2012,05,07,02,54,7.20
2012,05,07,02,55,7.20
2012,05,07,02,56,7.20
2012,05,07,02,57,7.10
2012,05,07,02,58,7.10
2012,05,07,02,59,7.10
2012,05,07,03,00,7.10
2012,05,07,03,01,7.10
2012,05,07,03,02,7.10
2012,05,07,03,03,7.10
2012,05,07,03,04,7.10
2012,05,07,03,05,7.10
2012,05,07,03,06,7.10
2012,05,07,03,07,7.10
2012,05,07,03,08,7.10
2012,05,07,03,09,7.10
2012,05,07,03,10,7.10
2012,05,07,03,11,7.10
2012,05,07,03,12,7.10
2012,05,07,03,13,7.10
2012,05,07,03,14,7.10
2012,05,07,03,15,7.10
2012,05,07,03,16,7.10
2012,05,07,03,17,7.10
2012,05,07,03,18,7.10
2012,05,07,03,19,7.00
2012,05,07,03,20,7.00
2012,05,07,03,21,7.00
2012,05,07,03,22,6.90
2012,05,07,03,23,6.90
2012,05,07,03,24,6.90
2012,05,07,03,25,6.90
2012,05,07,03,26,6.80
2012,05,07,03,27,6.80
2012,05,07,03,28,6.80
2012,05,07,03,29,6.80
2012,05,07,03,30,6.80
2012,05,07,03,31,6.80
2012,05,07,03,32,6.70
2012,05,07,03,33,6.70
2012,05,07,03,34,6.70
2012,05,07,03,35,6.70
2012,05,07,03,36,6.70
2012,05,07,03,37,6.70
2012,05,07,03,38,6.70
2012,05,07,03,39,6.70
2012,05,07,03,40,6.70
2012,05,07,03,41,6.70
2012,05,07,03,42,6.70
2012,05,07,03,43,6.70
2012,05,07,03,44,6.60
2012,05,07,03,45,6.60
2012,05,07,03,46,6.60
2012,05,07,03,47,6.60
2012,05,07,03,48,6.60
2012,05,07,03,49,6.60
2012,05,07,03,50,6.60
2012,05,07,03,51,6.60
2012,05,07,03,52,6.60
2012,05,07,03,53,6.60
2012,05,07,03,54,6.60
2012,05,07,03,55,6.60
2012,05,07,03,56,6.60
2012,05,07,03,57,6.60
2012,05,07,03,58,6.60
2012,05,07,03,59,6.60
2012,05,07,04,00,6.60
2012,05,07,04,01,6.60
2012,05,07,04,02,6.60
2012,05,07,04,03,6.60
2012,05,07,04,04,6.60
2012,05,07,04,05,6.50
2012,05,07,04,06,6.50
2012,05,07,04,07,6.50
2012,05,07,04,08,6.50
2012,05,07,04,09,6.40
2012,05,07,04,10,6.40
2012,05,07,04,11,6.40
2012,05,07,04,12,6.40
2012,05,07,04,13,6.40
2012,05,07,04,14,6.40
2012,05,07,04,15,6.30
2012,05,07,04,16,6.30
2012,05,07,04,17,6.30
2012,05,07,04,18,6.30
2012,05,07,04,19,6.30
2012,05,07,04,20,6.20
2012,05,07,04,21,6.20
2012,05,07,04,22,6.20
2012,05,07,04,23,6.20
2012,05,07,04,24,6.20
2012,05,07,04,25,6.20
2012,05,07,04,26,6.20
2012,05,07,04,27,6.20
2012,05,07,04,28,6.20
2012,05,07,04,29,6.20
2012,05,07,04,30,6.20
2012,05,07,04,31,6.20
2012,05,07,04,32,6.20
2012,05,07,04,33,6.20
2012,05,07,04,34,6.30
2012,05,07,04,35,6.30
2012,05,07,04,36,6.30
2012,05,07,04,37,6.30
2012,05,07,04,38,6.30
2012,05,07,04,39,6.20
2012,05,07,04,40,6.20
2012,05,07,04,41,6.20
2012,05,07,04,42,6.20
2012,05,07,04,43,6.20
2012,05,07,04,44,6.20
2012,05,07,04,45,6.20
2012,05,07,04,46,6.20
2012,05,07,04,47,6.20
2012,05,07,04,48,6.10
2012,05,07,04,49,6.10
2012,05,07,04,50,6.10
2012,05,07,04,51,6.10
2012,05,07,04,52,6.10
2012,05,07,04,53,6.10
2012,05,07,04,54,6.00
2012,05,07,04,55,6.00
2012,05,07,04,56,6.00
2012,05,07,04,57,6.00
2012,05,07,04,58,5.90
2012,05,07,04,59,5.90
2012,05,07,05,00,5.90
2012,05,07,05,01,5.90
2012,05,07,05,02,5.90
2012,05,07,05,03,5.90
2012,05,07,05,04,5.90
2012,05,07,05,05,5.90
2012,05,07,05,06,5.90
2012,05,07,05,07,5.90
2012,05,07,05,08,5.90
2012,05,07,05,09,5.90
2012,05,07,05,10,5.90
2012,05,07,05,11,5.90
2012,05,07,05,12,5.90
2012,05,07,05,13,5.90
2012,05,07,05,14,5.90
2012,05,07,05,15,5.90
2012,05,07,05,16,5.90
2012,05,07,05,17,5.90
2012,05,07,05,18,5.90
2012,05,07,05,19,5.90
2012,05,07,05,20,5.90
2012,05,07,05,21,5.80
2012,05,07,05,22,5.80
2012,05,07,05,23,5.80
2012,05,07,05,24,5.70
2012,05,07,05,25,5.70
2012,05,07,05,26,5.70
2012,05,07,05,27,5.70
2012,05,07,05,28,5.70
2012,05,07,05,29,5.60
2012,05,07,05,30,5.60
2012,05,07,05,31,5.70
2012,05,07,05,32,5.70
2012,05,07,05,33,5.70
2012,05,07,05,34,5.70
2012,05,07,05,35,5.70
2012,05,07,05,36,5.70
2012,05,07,05,37,5.70
2012,05,07,05,38,5.70
2012,05,07,05,39,5.80
2012,05,07,05,40,5.80
2012,05,07,05,41,5.80
2012,05,07,05,42,5.80
2012,05,07,05,43,5.80
2012,05,07,05,44,5.80
2012,05,07,05,45,5.80
2012,05,07,05,46,5.80
2012,05,07,05,47,5.80
2012,05,07,05,48,5.80
2012,05,07,05,49,5.80
2012,05,07,05,50,5.80
2012,05,07,05,51,5.80
2012,05,07,05,52,5.80
2012,05,07,05,53,5.80
2012,05,07,05,54,5.80
2012,05,07,05,55,5.80
2012,05,07,05,56,5.80
2012,05,07,05,57,5.80
2012,05,07,05,58,5.80
2012,05,07,05,59,5.80
2012,05,07,06,00,5.80
2012,05,07,06,01,5.90
2012,05,07,06,02,5.90
2012,05,07,06,03,5.90
2012,05,07,06,04,5.90
2012,05,07,06,05,5.90
2012,05,07,06,06,5.90
2012,05,07,06,07,5.90
2012,05,07,06,08,5.90
2012,05,07,06,09,5.90
2012,05,07,06,10,5.90
2012,05,07,06,11,5.90
2012,05,07,06,12,5.90
2012,05,07,06,13,5.90
2012,05,07,06,14,5.90
2012,05,07,06,15,5.90
2012,05,07,06,16,5.90
2012,05,07,06,17,5.90
2012,05,07,06,18,5.90
2012,05,07,06,19,5.90
2012,05,07,06,20,6.00
2012,05,07,06,21,6.00
2012,05,07,06,22,6.00
2012,05,07,06,23,6.10
2012,05,07,06,24,6.10
2012,05,07,06,25,6.10
2012,05,07,06,26,6.10
2012,05,07,06,27,6.20
2012,05,07,06,28,6.20
2012,05,07,06,29,6.20
2012,05,07,06,30,6.20
2012,05,07,06,31,6.30
2012,05,07,06,32,6.30
2012,05,07,06,33,6.30
2012,05,07,06,34,6.30
2012,05,07,06,35,6.40
2012,05,07,06,36,6.40
2012,05,07,06,37,6.40
2012,05,07,06,38,6.40
2012,05,07,06,39,6.40
2012,05,07,06,40,6.40
2012,05,07,06,41,6.40
2012,05,07,06,42,6.50
2012,05,07,06,43,6.50
2012,05,07,06,44,6.50
2012,05,07,06,45,6.60
2012,05,07,06,46,6.60
2012,05,07,06,47,6.70
2012,05,07,06,48,6.70
2012,05,07,06,49,6.70
2012,05,07,06,50,6.70
2012,05,07,06,51,6.80
2012,05,07,06,52,6.80
2012,05,07,06,53,6.80
2012,05,07,06,54,6.90
2012,05,07,06,55,6.90
2012,05,07,06,56,6.90
2012,05,07,06,57,6.90
2012,05,07,06,58,7.00
2012,05,07,06,59,7.00
2012,05,07,07,00,7.10
2012,05,07,07,01,7.10
2012,05,07,07,02,7.20
2012,05,07,07,03,7.20
2012,05,07,07,04,7.30
2012,05,07,07,05,7.30
2012,05,07,07,06,7.40
2012,05,07,07,07,7.50
2012,05,07,07,08,7.60
2012,05,07,07,09,7.60
2012,05,07,07,10,7.70
2012,05,07,07,11,7.80
2012,05,07,07,12,7.80
2012,05,07,07,13,7.90
2012,05,07,07,14,8.00
2012,05,07,07,15,8.10
2012,05,07,07,16,8.10
2012,05,07,07,17,8.20
2012,05,07,07,18,8.30
2012,05,07,07,19,8.40
2012,05,07,07,20,8.50
2012,05,07,07,21,8.60
2012,05,07,07,22,8.70
2012,05,07,07,23,8.70
2012,05,07,07,24,8.80
2012,05,07,07,25,8.80
2012,05,07,07,26,8.90
2012,05,07,07,27,8.90
2012,05,07,07,28,8.90
2012,05,07,07,29,9.00
2012,05,07,07,30,9.00
2012,05,07,07,31,9.10
2012,05,07,07,32,9.10
2012,05,07,07,33,9.10
2012,05,07,07,34,9.10
2012,05,07,07,35,9.20
2012,05,07,07,36,9.20
2012,05,07,07,37,9.20
2012,05,07,07,38,9.20
2012,05,07,07,39,9.30
2012,05,07,07,40,9.30
2012,05,07,07,41,9.40
2012,05,07,07,42,9.40
2012,05,07,07,43,9.50
2012,05,07,07,44,9.60
2012,05,07,07,45,9.60
2012,05,07,07,46,9.70
2012,05,07,07,47,9.70
2012,05,07,07,48,9.80
2012,05,07,07,49,9.90
2012,05,07,07,50,9.90
2012,05,07,07,51,10.00
2012,05,07,07,52,10.10
2012,05,07,07,53,10.20
2012,05,07,07,54,10.20
2012,05,07,07,55,10.30
2012,05,07,07,56,10.40
2012,05,07,07,57,10.50
2012,05,07,07,58,10.60
2012,05,07,07,59,10.70
2012,05,07,08,00,10.80
2012,05,07,08,01,10.80
2012,05,07,08,02,10.90
2012,05,07,08,03,10.90
2012,05,07,08,04,11.00
2012,05,07,08,05,11.10
2012,05,07,08,06,11.10
2012,05,07,08,07,11.20
2012,05,07,08,08,11.20
2012,05,07,08,09,11.30
2012,05,07,08,10,11.40
2012,05,07,08,11,11.50
2012,05,07,08,12,11.60
2012,05,07,08,13,11.70
2012,05,07,08,14,11.80
2012,05,07,08,15,11.90
2012,05,07,08,16,12.00
2012,05,07,08,17,12.00
2012,05,07,08,18,12.10
2012,05,07,08,19,12.20
2012,05,07,08,20,12.20
2012,05,07,08,21,12.20
2012,05,07,08,22,12.30
2012,05,07,08,23,12.30
2012,05,07,08,24,12.30
2012,05,07,08,25,12.30
2012,05,07,08,26,12.30
2012,05,07,08,27,12.30
2012,05,07,08,28,12.30
2012,05,07,08,29,12.30
2012,05,07,08,30,12.30
2012,05,07,08,31,12.20
2012,05,07,08,32,12.20
2012,05,07,08,33,12.20
2012,05,07,08,34,12.20
2012,05,07,08,35,12.20
2012,05,07,08,36,12.30
2012,05,07,08,37,12.30
2012,05,07,08,38,12.30
2012,05,07,08,39,12.30
2012,05,07,08,40,12.20
2012,05,07,08,41,12.20
2012,05,07,08,42,12.20
2012,05,07,08,43,12.20
2012,05,07,08,44,12.20
2012,05,07,08,45,12.20
2012,05,07,08,46,12.20
2012,05,07,08,47,12.20
2012,05,07,08,48,12.20
2012,05,07,08,49,12.20
2012,05,07,08,50,12.20
2012,05,07,08,51,12.20
2012,05,07,08,52,12.20
2012,05,07,08,53,12.20
2012,05,07,08,54,12.20
2012,05,07,08,55,12.30
2012,05,07,08,56,12.30
2012,05,07,08,57,12.30
2012,05,07,08,58,12.30
2012,05,07,08,59,12.40
2012,05,07,09,00,12.40
2012,05,07,09,01,12.50
2012,05,07,09,02,12.50
2012,05,07,09,03,12.60
2012,05,07,09,04,12.60
2012,05,07,09,05,12.60
2012,05,07,09,06,12.70
2012,05,07,09,07,12.70
2012,05,07,09,08,12.70
2012,05,07,09,09,12.70
2012,05,07,09,10,12.70
2012,05,07,09,11,12.70
2012,05,07,09,12,12.70
2012,05,07,09,13,12.70
2012,05,07,09,14,12.80
2012,05,07,09,15,12.80
2012,05,07,09,16,12.80
2012,05,07,09,17,12.80
2012,05,07,09,18,12.80
2012,05,07,09,19,12.80
2012,05,07,09,20,12.80
2012,05,07,09,21,12.70
2012,05,07,09,22,12.70
2012,05,07,09,23,12.80
2012,05,07,09,24,12.80
2012,05,07,09,25,12.80
2012,05,07,09,26,12.80
2012,05,07,09,27,12.80
2012,05,07,09,28,12.90
2012,05,07,09,29,12.90
2012,05,07,09,30,13.00
2012,05,07,09,31,13.10
2012,05,07,09,32,13.10
2012,05,07,09,33,13.10
2012,05,07,09,34,13.20
2012,05,07,09,35,13.20
2012,05,07,09,36,13.30
2012,05,07,09,37,13.40
2012,05,07,09,38,13.40
2012,05,07,09,39,13.40
2012,05,07,09,40,13.50
2012,05,07,09,41,13.50
2012,05,07,09,42,13.50
2012,05,07,09,43,13.50
2012,05,07,09,44,13.50
2012,05,07,09,45,13.50
2012,05,07,09,46,13.50
2012,05,07,09,47,13.60
2012,05,07,09,48,13.60
2012,05,07,09,49,13.70
2012,05,07,09,50,13.70
2012,05,07,09,51,13.80
2012,05,07,09,52,13.80
2012,05,07,09,53,13.70
2012,05,07,09,54,13.80
2012,05,07,09,55,13.70
2012,05,07,09,56,13.60
2012,05,07,09,57,13.50
2012,05,07,09,58,13.50
2012,05,07,09,59,13.50
2012,05,07,10,00,13.50
2012,05,07,10,01,13.60
2012,05,07,10,02,13.50
2012,05,07,10,03,13.40
2012,05,07,10,04,13.40
2012,05,07,10,05,13.50
2012,05,07,10,06,13.60
2012,05,07,10,07,13.60
2012,05,07,10,08,13.70
2012,05,07,10,09,13.70
2012,05,07,10,10,13.70
2012,05,07,10,11,13.80
2012,05,07,10,12,13.80
2012,05,07,10,13,13.90
2012,05,07,10,14,14.00
2012,05,07,10,15,14.10
2012,05,07,10,16,14.10
2012,05,07,10,17,14.20
2012,05,07,10,18,14.20
2012,05,07,10,19,14.30
2012,05,07,10,20,14.40
2012,05,07,10,21,14.50
2012,05,07,10,22,14.60
2012,05,07,10,23,14.60
2012,05,07,10,24,14.60
2012,05,07,10,25,14.60
2012,05,07,10,26,14.60
2012,05,07,10,27,14.60
2012,05,07,10,28,14.50
2012,05,07,10,29,14.60
2012,05,07,10,30,14.60
2012,05,07,10,31,14.70
2012,05,07,10,32,14.80
2012,05,07,10,33,15.00
2012,05,07,10,34,15.00
2012,05,07,10,35,15.10
2012,05,07,10,36,15.20
2012,05,07,10,37,15.30
2012,05,07,10,38,15.30
2012,05,07,10,39,15.30
2012,05,07,10,40,15.30
2012,05,07,10,41,15.20
2012,05,07,10,42,15.20
2012,05,07,10,43,15.30
2012,05,07,10,44,15.20
2012,05,07,10,45,15.20
2012,05,07,10,46,15.30
2012,05,07,10,47,15.30
2012,05,07,10,48,15.30
2012,05,07,10,49,15.40
2012,05,07,10,50,15.50
2012,05,07,10,51,15.50
2012,05,07,10,52,15.60
2012,05,07,10,53,15.70
2012,05,07,10,54,15.70
2012,05,07,10,55,15.80
2012,05,07,10,56,15.80
2012,05,07,10,57,15.80
2012,05,07,10,58,15.80
2012,05,07,10,59,15.80
2012,05,07,11,00,15.80
2012,05,07,11,01,15.80
2012,05,07,11,02,15.80
2012,05,07,11,03,15.70
2012,05,07,11,04,15.70
2012,05,07,11,05,15.60
2012,05,07,11,06,15.60
2012,05,07,11,07,15.60
2012,05,07,11,08,15.70
2012,05,07,11,09,15.70
2012,05,07,11,10,15.80
2012,05,07,11,11,15.80
2012,05,07,11,12,16.00
2012,05,07,11,13,16.10
2012,05,07,11,14,16.10
2012,05,07,11,15,16.20
2012,05,07,11,16,16.30
2012,05,07,11,17,16.30
2012,05,07,11,18,16.20
2012,05,07,11,19,16.10
2012,05,07,11,20,16.10
2012,05,07,11,21,16.10
2012,05,07,11,22,16.10
2012,05,07,11,23,16.00
2012,05,07,11,24,16.00
2012,05,07,11,25,16.00
2012,05,07,11,26,16.10
2012,05,07,11,27,16.10
2012,05,07,11,28,16.20
2012,05,07,11,29,16.30
2012,05,07,11,30,16.20
2012,05,07,11,31,16.20
2012,05,07,11,32,16.10
2012,05,07,11,33,16.10
2012,05,07,11,34,16.00
2012,05,07,11,35,16.00
2012,05,07,11,36,15.90
2012,05,07,11,37,15.90
2012,05,07,11,38,15.90
2012,05,07,11,39,16.00
2012,05,07,11,40,16.10
2012,05,07,11,41,16.10
2012,05,07,11,42,16.20
2012,05,07,11,43,16.20
2012,05,07,11,44,16.20
2012,05,07,11,45,16.20
2012,05,07,11,46,16.30
2012,05,07,11,47,16.20
2012,05,07,11,48,16.20
2012,05,07,11,49,16.10
2012,05,07,11,50,16.10
2012,05,07,11,51,16.10
2012,05,07,11,52,16.20
2012,05,07,11,53,16.20
2012,05,07,11,54,16.20
2012,05,07,11,55,16.20
2012,05,07,11,56,16.20
2012,05,07,11,57,16.20
2012,05,07,11,58,16.30
2012,05,07,11,59,16.30
2012,05,07,12,00,16.50
2012,05,07,12,01,16.60
2012,05,07,12,02,16.70
2012,05,07,12,03,16.70
2012,05,07,12,04,16.70
2012,05,07,12,05,16.60
2012,05,07,12,06,16.60
2012,05,07,12,07,16.50
2012,05,07,12,08,16.40
2012,05,07,12,09,16.40
2012,05,07,12,10,16.40
2012,05,07,12,11,16.40
2012,05,07,12,12,16.30
2012,05,07,12,13,16.30
2012,05,07,12,14,16.40
2012,05,07,12,15,16.50
2012,05,07,12,16,16.60
2012,05,07,12,17,16.70
2012,05,07,12,18,16.80
2012,05,07,12,19,16.80
2012,05,07,12,20,16.90
2012,05,07,12,21,16.90
2012,05,07,12,22,16.90
2012,05,07,12,23,16.90
2012,05,07,12,24,16.90
2012,05,07,12,25,16.90
2012,05,07,12,26,16.90
2012,05,07,12,27,17.00
2012,05,07,12,28,17.10
2012,05,07,12,29,17.20
2012,05,07,12,30,17.30
2012,05,07,12,31,17.30
2012,05,07,12,32,17.40
2012,05,07,12,33,17.50
2012,05,07,12,34,17.60
2012,05,07,12,35,17.60
2012,05,07,12,36,17.70
2012,05,07,12,37,17.70
2012,05,07,12,38,17.70
2012,05,07,12,39,17.70
2012,05,07,12,40,17.70
2012,05,07,12,41,17.60
2012,05,07,12,42,17.60
2012,05,07,12,43,17.60
2012,05,07,12,44,17.60
2012,05,07,12,45,17.60
2012,05,07,12,46,17.70
2012,05,07,12,47,17.80
2012,05,07,12,48,17.90
2012,05,07,12,49,18.00
2012,05,07,12,50,18.00
2012,05,07,12,51,18.00
2012,05,07,12,52,17.90
2012,05,07,12,53,17.80
2012,05,07,12,54,17.80
2012,05,07,12,55,17.80
2012,05,07,12,56,17.80
2012,05,07,12,57,17.90
2012,05,07,12,58,18.00
2012,05,07,12,59,18.00
2012,05,07,13,00,18.10
2012,05,07,13,01,18.20
2012,05,07,13,02,18.10
2012,05,07,13,03,18.10
2012,05,07,13,04,18.10
2012,05,07,13,05,18.10
2012,05,07,13,06,18.10
2012,05,07,13,07,18.10
2012,05,07,13,08,18.10
2012,05,07,13,09,18.20
2012,05,07,13,10,18.30
2012,05,07,13,11,18.30
2012,05,07,13,12,18.30
2012,05,07,13,13,18.20
2012,05,07,13,14,18.10
2012,05,07,13,15,18.10
2012,05,07,13,16,18.10
2012,05,07,13,17,18.10
2012,05,07,13,18,18.10
2012,05,07,13,19,18.20
2012,05,07,13,20,18.30
2012,05,07,13,21,18.30
2012,05,07,13,22,18.40
2012,05,07,13,23,18.40
2012,05,07,13,24,18.50
2012,05,07,13,25,18.60
2012,05,07,13,26,18.60
2012,05,07,13,27,18.60
2012,05,07,13,28,18.50
2012,05,07,13,29,18.30
2012,05,07,13,30,18.20
2012,05,07,13,31,18.20
2012,05,07,13,32,18.20
2012,05,07,13,33,18.20
2012,05,07,13,34,18.20
2012,05,07,13,35,18.20
2012,05,07,13,36,18.20
2012,05,07,13,37,18.30
2012,05,07,13,38,18.50
2012,05,07,13,39,18.70
2012,05,07,13,40,18.90
2012,05,07,13,41,18.90
2012,05,07,13,42,18.90
2012,05,07,13,43,18.90
2012,05,07,13,44,18.80
2012,05,07,13,45,18.70
2012,05,07,13,46,18.60
2012,05,07,13,47,18.50
2012,05,07,13,48,18.50
2012,05,07,13,49,18.50
2012,05,07,13,50,18.50
2012,05,07,13,51,18.50
2012,05,07,13,52,18.50
2012,05,07,13,53,18.60
2012,05,07,13,54,18.50
2012,05,07,13,55,18.50
2012,05,07,13,56,18.50
2012,05,07,13,57,18.40
2012,05,07,13,58,18.30
2012,05,07,13,59,18.30
2012,05,07,14,00,18.20
2012,05,07,14,01,18.20
2012,05,07,14,02,18.10
2012,05,07,14,03,18.10
2012,05,07,14,04,18.20
2012,05,07,14,05,18.20
2012,05,07,14,06,18.20
2012,05,07,14,07,18.20
2012,05,07,14,08,18.20
2012,05,07,14,09,18.30
2012,05,07,14,10,18.40
2012,05,07,14,11,18.50
2012,05,07,14,12,18.50
2012,05,07,14,13,18.50
2012,05,07,14,14,18.40
2012,05,07,14,15,18.40
2012,05,07,14,16,18.40
2012,05,07,14,17,18.40
2012,05,07,14,18,18.40
2012,05,07,14,19,18.50
2012,05,07,14,20,18.50
2012,05,07,14,21,18.40
2012,05,07,14,22,18.50
2012,05,07,14,23,18.60
2012,05,07,14,24,18.60
2012,05,07,14,25,18.70
2012,05,07,14,26,18.70
2012,05,07,14,27,18.80
2012,05,07,14,28,18.70
2012,05,07,14,29,18.70
2012,05,07,14,30,18.60
2012,05,07,14,31,18.60
2012,05,07,14,32,18.60
2012,05,07,14,33,18.60
2012,05,07,14,34,18.60
2012,05,07,14,35,18.70
2012,05,07,14,36,18.80
2012,05,07,14,37,18.70
2012,05,07,14,38,18.70
2012,05,07,14,39,18.60
2012,05,07,14,40,18.50
2012,05,07,14,41,18.40
2012,05,07,14,42,18.30
2012,05,07,14,43,18.30
2012,05,07,14,44,18.30
2012,05,07,14,45,18.40
2012,05,07,14,46,18.40
2012,05,07,14,47,18.30
2012,05,07,14,48,18.30
2012,05,07,14,49,18.30
2012,05,07,14,50,18.20
2012,05,07,14,51,18.10
2012,05,07,14,52,18.10
2012,05,07,14,53,18.10
2012,05,07,14,54,18.10
2012,05,07,14,55,17.90
2012,05,07,14,56,17.70
2012,05,07,14,57,17.60
2012,05,07,14,58,17.60
2012,05,07,14,59,17.60
2012,05,07,15,00,17.60
2012,05,07,15,01,17.50
2012,05,07,15,02,17.40
2012,05,07,15,03,17.40
2012,05,07,15,04,17.30
2012,05,07,15,05,17.20
2012,05,07,15,06,17.10
2012,05,07,15,07,17.00
2012,05,07,15,08,17.00
2012,05,07,15,09,17.00
2012,05,07,15,10,16.90
2012,05,07,15,11,16.80
2012,05,07,15,12,16.70
2012,05,07,15,13,16.70
2012,05,07,15,14,16.70
2012,05,07,15,15,16.70
2012,05,07,15,16,16.80
2012,05,07,15,17,17.00
2012,05,07,15,18,17.10
2012,05,07,15,19,17.30
2012,05,07,15,20,17.50
2012,05,07,15,21,17.60
2012,05,07,15,22,17.80
2012,05,07,15,23,17.90
2012,05,07,15,24,18.00
2012,05,07,15,25,18.00
2012,05,07,15,26,18.10
2012,05,07,15,27,18.10
2012,05,07,15,28,18.20
2012,05,07,15,29,18.20
2012,05,07,15,30,18.20
2012,05,07,15,31,18.20
2012,05,07,15,32,18.30
2012,05,07,15,33,18.30
2012,05,07,15,34,18.30
2012,05,07,15,35,18.20
2012,05,07,15,36,18.20
2012,05,07,15,37,18.10
2012,05,07,15,38,17.90
2012,05,07,15,39,17.90
2012,05,07,15,40,17.80
2012,05,07,15,41,17.80
2012,05,07,15,42,17.80
2012,05,07,15,43,17.80
2012,05,07,15,44,17.90
2012,05,07,15,45,17.90
2012,05,07,15,46,18.00
2012,05,07,15,47,18.00
2012,05,07,15,48,18.10
2012,05,07,15,49,18.10
2012,05,07,15,50,18.10
2012,05,07,15,51,18.10
2012,05,07,15,52,18.10
2012,05,07,15,53,18.10
2012,05,07,15,54,18.00
2012,05,07,15,55,17.90
2012,05,07,15,56,17.90
2012,05,07,15,57,18.00
2012,05,07,15,58,18.00
2012,05,07,15,59,18.10
2012,05,07,16,00,18.10
2012,05,07,16,01,18.10
2012,05,07,16,02,18.00
2012,05,07,16,03,17.90
2012,05,07,16,04,17.70
2012,05,07,16,05,17.70
2012,05,07,16,06,17.60
2012,05,07,16,07,17.50
2012,05,07,16,08,17.50
2012,05,07,16,09,17.50
2012,05,07,16,10,17.50
2012,05,07,16,11,17.50
2012,05,07,16,12,17.40
2012,05,07,16,13,17.40
2012,05,07,16,14,17.30
2012,05,07,16,15,17.20
2012,05,07,16,16,17.00
2012,05,07,16,17,16.80
2012,05,07,16,18,16.70
2012,05,07,16,19,16.60
2012,05,07,16,20,16.60
2012,05,07,16,21,16.60
2012,05,07,16,22,16.60
2012,05,07,16,23,16.70
2012,05,07,16,24,16.70
2012,05,07,16,25,16.70
2012,05,07,16,26,16.70
2012,05,07,16,27,16.70
2012,05,07,16,28,16.70
2012,05,07,16,29,16.70
2012,05,07,16,30,16.70
2012,05,07,16,31,16.60
2012,05,07,16,32,16.60
2012,05,07,16,33,16.60
2012,05,07,16,34,16.50
2012,05,07,16,35,16.50
2012,05,07,16,36,16.40
2012,05,07,16,37,16.40
2012,05,07,16,38,16.40
2012,05,07,16,39,16.30
2012,05,07,16,40,16.30
2012,05,07,16,41,16.20
2012,05,07,16,42,16.20
2012,05,07,16,43,16.10
2012,05,07,16,44,16.10
2012,05,07,16,45,16.10
2012,05,07,16,46,16.10
2012,05,07,16,47,16.10
2012,05,07,16,48,16.10
2012,05,07,16,49,16.00
2012,05,07,16,50,16.00
2012,05,07,16,51,16.00
2012,05,07,16,52,16.10
2012,05,07,16,53,16.00
2012,05,07,16,54,16.00
2012,05,07,16,55,16.00
2012,05,07,16,56,16.00
2012,05,07,16,57,16.10
2012,05,07,16,58,16.10
2012,05,07,16,59,16.10
2012,05,07,17,00,16.20
2012,05,07,17,01,16.20
2012,05,07,17,02,16.20
2012,05,07,17,03,16.30
2012,05,07,17,04,16.30
2012,05,07,17,05,16.30
2012,05,07,17,06,16.20
2012,05,07,17,07,16.20
2012,05,07,17,08,16.20
2012,05,07,17,09,16.20
2012,05,07,17,10,16.30
2012,05,07,17,11,16.40
2012,05,07,17,12,16.50
2012,05,07,17,13,16.60
2012,05,07,17,14,16.70
2012,05,07,17,15,16.70
2012,05,07,17,16,16.70
2012,05,07,17,17,16.80
2012,05,07,17,18,16.80
2012,05,07,17,19,16.90
2012,05,07,17,20,16.90
2012,05,07,17,21,16.90
2012,05,07,17,22,16.90
2012,05,07,17,23,16.90
2012,05,07,17,24,16.90
2012,05,07,17,25,16.90
2012,05,07,17,26,16.90
2012,05,07,17,27,16.90
2012,05,07,17,28,16.90
2012,05,07,17,29,16.90
2012,05,07,17,30,16.90
2012,05,07,17,31,16.90
2012,05,07,17,32,16.90
2012,05,07,17,33,17.00
2012,05,07,17,34,17.00
2012,05,07,17,35,17.00
2012,05,07,17,36,17.00
2012,05,07,17,37,16.90
2012,05,07,17,38,16.80
2012,05,07,17,39,16.80